• In Portugal
  • List of Countries
  • For 7 days
  • Water Temperature
  • Satellite Maps
  • Weather Map
  • Weather Widgets
  • user-avatar
    Login

    Hourly Weather Megri

    Today, 21 November, Tuesday

    Time Temperature Precipitation Wind Pressure Humidity
    00:00 +6°C° 0 mm 2 mps 620 mmHg 59%
    01:00 +6°C° 0 mm 2 mps 619 mmHg 61%
    02:00 +6°C° 0 mm 2 mps 619 mmHg 63%
    03:00 +6°C° 0 mm 2 mps 619 mmHg 65%
    04:00 +6°C° 0.1 mm 2 mps 619 mmHg 67%
    05:00 +6°C° 0.1 mm 2 mps 618 mmHg 69%
    06:00 +6°C° 0.1 mm 2 mps 618 mmHg 72%
    07:00 +7°C° 0.1 mm 2 mps 618 mmHg 68%
    08:00 +8°C° 0.1 mm 2 mps 619 mmHg 65%
    09:00 +9°C° 0.1 mm 3 mps 619 mmHg 62%
    10:00 +9°C° 0.1 mm 3 mps 619 mmHg 60%
    11:00 +10°C° 0.1 mm 4 mps 618 mmHg 58%
    12:00 +10°C° 0.1 mm 4 mps 618 mmHg 57%
    13:00 +10°C° 0.2 mm 4 mps 618 mmHg 58%
    14:00 +10°C° 0.2 mm 4 mps 618 mmHg 59%
    15:00 +10°C° 0.2 mm 4 mps 617 mmHg 60%
    16:00 +8°C° 0.2 mm 4 mps 617 mmHg 64%
    17:00 +9°C° 0.2 mm 3 mps 617 mmHg 67%
    18:00 +8°C° 0.2 mm 3 mps 616 mmHg 71%
    19:00 +7°C° 0 mm 3 mps 616 mmHg 73%
    20:00 +7°C° 0 mm 3 mps 616 mmHg 74%
    21:00 +7°C° 0 mm 3 mps 616 mmHg 75%
    22:00 +7°C° 0 mm 3 mps 615 mmHg 77%
    23:00 +5°C° 0 mm 3 mps 615 mmHg 80%

    Tomorrow, 22 November, Wednesday

    Time Temperature Precipitation Wind Pressure Humidity
    00:00 +5°C° 0 mm 3 mps 615 mmHg 82%
    01:00 +5°C° 0 mm 3 mps 615 mmHg 83%
    02:00 +4°C° 0 mm 3 mps 614 mmHg 84%
    03:00 +4°C° 0 mm 3 mps 614 mmHg 85%
    04:00 +4°C° 0 mm 3 mps 614 mmHg 84%
    05:00 +3°C° 0 mm 3 mps 614 mmHg 83%
    06:00 +4°C° 0 mm 2 mps 614 mmHg 82%
    07:00 +4°C° 0.1 mm 3 mps 614 mmHg 76%
    08:00 +5°C° 0.1 mm 3 mps 614 mmHg 70%
    09:00 +7°C° 0.1 mm 3 mps 615 mmHg 65%
    10:00 +6°C° 0.5 mm 4 mps 615 mmHg 65%
    11:00 +6°C° 0.5 mm 4 mps 614 mmHg 66%
    12:00 +6°C° 0.5 mm 4 mps 614 mmHg 66%
    13:00 +6°C° 0.3 mm 4 mps 615 mmHg 63%
    14:00 +6°C° 0.3 mm 4 mps 615 mmHg 60%
    15:00 +7°C° 0.3 mm 5 mps 615 mmHg 58%
    16:00 +6°C° 0.1 mm 4 mps 615 mmHg 60%
    17:00 +5°C° 0.1 mm 4 mps 615 mmHg 62%
    18:00 +4°C° 0.1 mm 3 mps 615 mmHg 64%
    19:00 +3°C° 0 mm 3 mps 615 mmHg 67%
    20:00 +3°C° 0 mm 2 mps 615 mmHg 69%
    21:00 +3°C° 0 mm 2 mps 616 mmHg 71%
    22:00 +2°C° 0.1 mm 2 mps 616 mmHg 73%
    23:00 +2°C° 0.1 mm 2 mps 616 mmHg 74%

    Day after tomorrow, 23 November, Thursday

    Time Temperature Precipitation Wind Pressure Humidity
    00:00 +2°C° 0.1 mm 2 mps 616 mmHg 75%
    01:00 +1°C° 0.2 mm 2 mps 616 mmHg 77%
    02:00 +1°C° 0.2 mm 2 mps 616 mmHg 78%
    03:00 +1°C° 0.2 mm 2 mps 616 mmHg 79%
    04:00 -1°C° 0.3 mm 2 mps 616 mmHg 80%
    05:00 -2°C° 0.3 mm 2 mps 616 mmHg 82%
    06:00 -2°C° 0.3 mm 2 mps 616 mmHg 83%
    07:00 -2°C° 0.1 mm 2 mps 617 mmHg 78%
    08:00 -2°C° 0.1 mm 3 mps 617 mmHg 73%
    09:00 -1°C° 0.1 mm 3 mps 618 mmHg 69%
    10:00 -1°C° 0 mm 3 mps 618 mmHg 63%
    11:00 0°C° 0 mm 3 mps 618 mmHg 57%
    12:00 0°C° 0 mm 4 mps 618 mmHg 51%
    13:00 0°C° 0 mm 4 mps 618 mmHg 49%
    14:00 0°C° 0 mm 4 mps 618 mmHg 46%
    15:00 +2°C° 0 mm 3 mps 618 mmHg 43%
    16:00 +1°C° 0 mm 3 mps 618 mmHg 46%
    17:00 +1°C° 0 mm 2 mps 618 mmHg 49%
    18:00 -1°C° 0 mm 2 mps 618 mmHg 51%
    19:00 -1°C° 0 mm 2 mps 618 mmHg 52%
    20:00 +1°C° 0 mm 1 mps 618 mmHg 52%
    21:00 +1°C° 0 mm 1 mps 618 mmHg 52%
    22:00 +1°C° 0 mm 1 mps 618 mmHg 53%
    23:00 +1°C° 0 mm 1 mps 618 mmHg 55%

    24 November, Friday

    Time Temperature Precipitation Wind Pressure Humidity
    00:00 +1°C° 0 mm 1 mps 618 mmHg 56%
    01:00 +1°C° 0 mm 1 mps 618 mmHg 59%
    02:00 0°C° 0 mm 1 mps 618 mmHg 61%
    03:00 0°C° 0 mm 1 mps 618 mmHg 64%
    04:00 0°C° 0 mm 1 mps 618 mmHg 65%
    05:00 0°C° 0 mm 1 mps 618 mmHg 67%
    06:00 -1°C° 0 mm 1 mps 618 mmHg 69%
    07:00 -1°C° 0.3 mm 1 mps 618 mmHg 69%
    08:00 0°C° 0.3 mm 1 mps 619 mmHg 70%
    09:00 0°C° 0.3 mm 1 mps 619 mmHg 71%
    10:00 0°C° 0.5 mm 1 mps 619 mmHg 72%
    11:00 -2°C° 0.5 mm 2 mps 619 mmHg 73%
    12:00 -2°C° 0.5 mm 2 mps 619 mmHg 75%
    13:00 -3°C° 0.5 mm 2 mps 619 mmHg 75%
    14:00 -3°C° 0.5 mm 2 mps 619 mmHg 76%
    15:00 -3°C° 0.5 mm 2 mps 619 mmHg 77%
    16:00 -4°C° 0.1 mm 2 mps 619 mmHg 77%
    17:00 -4°C° 0.1 mm 2 mps 619 mmHg 77%
    18:00 -3°C° 0.1 mm 1 mps 619 mmHg 78%
    19:00 -3°C° 0 mm 1 mps 620 mmHg 75%
    20:00 -4°C° 0 mm 1 mps 620 mmHg 72%
    21:00 -4°C° 0 mm 1 mps 620 mmHg 70%
    22:00 -4°C° 0 mm 1 mps 620 mmHg 68%
    23:00 -4°C° 0 mm 1 mps 620 mmHg 67%

    25 November, Saturday

    Time Temperature Precipitation Wind Pressure Humidity
    00:00 -6°C° 0 mm 2 mps 620 mmHg 65%
    01:00 -6°C° 0 mm 2 mps 620 mmHg 67%
    02:00 -6°C° 0 mm 2 mps 621 mmHg 69%
    03:00 -6°C° 0 mm 2 mps 621 mmHg 70%
    04:00 -7°C° 0 mm 2 mps 621 mmHg 72%
    05:00 -7°C° 0 mm 2 mps 621 mmHg 73%
    06:00 -7°C° 0 mm 2 mps 622 mmHg 75%
    07:00 -6°C° 0.1 mm 2 mps 622 mmHg 72%
    08:00 -7°C° 0.1 mm 3 mps 623 mmHg 69%
    09:00 -6°C° 0.1 mm 3 mps 623 mmHg 67%
    10:00 -6°C° 0 mm 3 mps 623 mmHg 63%
    11:00 -5°C° 0 mm 4 mps 623 mmHg 60%
    12:00 -5°C° 0 mm 4 mps 623 mmHg 57%
    13:00 -5°C° 0 mm 4 mps 623 mmHg 55%
    14:00 -5°C° 0 mm 3 mps 623 mmHg 53%
    15:00 -5°C° 0 mm 3 mps 623 mmHg 51%
    16:00 -6°C° 0 mm 3 mps 623 mmHg 52%
    17:00 -7°C° 0 mm 2 mps 623 mmHg 53%
    18:00 -8°C° 0 mm 2 mps 624 mmHg 54%
    19:00 -8°C° 0 mm 2 mps 624 mmHg 53%
    20:00 -8°C° 0 mm 2 mps 624 mmHg 52%
    21:00 -7°C° 0 mm 1 mps 624 mmHg 51%
    22:00 -8°C° 0 mm 1 mps 624 mmHg 52%
    23:00 -8°C° 0 mm 1 mps 624 mmHg 52%

    26 November, Sunday

    Time Temperature Precipitation Wind Pressure Humidity
    00:00 -8°C° 0 mm 1 mps 624 mmHg 53%
    01:00 -8°C° 0 mm 1 mps 624 mmHg 53%
    02:00 -8°C° 0 mm 1 mps 624 mmHg 53%
    03:00 -8°C° 0 mm 1 mps 625 mmHg 54%
    04:00 -8°C° 0 mm 1 mps 625 mmHg 54%
    05:00 -8°C° 0 mm 1 mps 625 mmHg 54%
    06:00 -8°C° 0 mm 1 mps 625 mmHg 54%
    07:00 -7°C° 0 mm 1 mps 625 mmHg 52%
    08:00 -6°C° 0 mm 1 mps 626 mmHg 50%
    09:00 -4°C° 0 mm 1 mps 626 mmHg 48%
    10:00 -3°C° 0 mm 1 mps 626 mmHg 45%
    11:00 -1°C° 0 mm 1 mps 626 mmHg 43%
    12:00 0°C° 0 mm 1 mps 626 mmHg 41%
    13:00 0°C° 0 mm 1 mps 626 mmHg 42%
    14:00 0°C° 0 mm 1 mps 625 mmHg 43%
    15:00 0°C° 0 mm 1 mps 625 mmHg 44%
    16:00 -2°C° 0 mm 1 mps 625 mmHg 46%
    17:00 -3°C° 0 mm 1 mps 625 mmHg 47%
    18:00 -4°C° 0 mm 1 mps 624 mmHg 49%
    19:00 -6°C° 0 mm 1 mps 624 mmHg 48%
    20:00 -6°C° 0 mm 1 mps 624 mmHg 47%
    21:00 -6°C° 0 mm 1 mps 624 mmHg 46%
    22:00 -6°C° 0 mm 1 mps 624 mmHg 45%
    23:00 -6°C° 0 mm 1 mps 624 mmHg 44%
    Show more